Home   Weather   Tucumán   Past weeks

Flag for Argentina Past Weather in Tucumán, Tucumán, Argentina — Yesterday and Last 2 Weeks

Now
63 °F

Passing clouds.


Feels Like: 63 °F
Forecast: 59 / 77 °F
Wind: 5 mph from West

Location: Tucuman Aerodrome

Current Time: Apr 24, 2017 at 2:30:58 am

Latest Report: Apr 24, 2017 at 2:00 am


Visibility: N/A

Pressure: 29.89 "Hg

Humidity: 88%

Dew Point: 59 °F

Location of TucumánLocation

Past Weather in Tucumán — Graph

°F

Tucumán Temperature Yesterday

Maximum temperature yesterday: 77 °F (at 3:00 pm)
Minimum temperature yesterday: 63 °F (at 8:00 am)
Average temperature yesterday: 69 °F

High & Low Weather Summary for the Past Weeks

 TemperatureHumidityPressure
High82 °F (Apr 11, 3:00 pm)100% (Apr 15, 8:00 pm)30.27 "Hg (Apr 15, 8:00 pm)
Low55 °F (Apr 11, 5:00 am)26% (Apr 11, 4:00 pm)29.77 "Hg (Apr 20, 4:00 pm)
Average65 °F80%30.03 "Hg
* Reported Apr 9 1:00 am — Apr 24 1:00 am, Tucumán, Weather by CustomWeather, © 2017

Note: Actual official high and low records may vary slightly from our data, if they occured in-between our weather recording intervals... More about our weather records

Advertising

Tucumán Weather History for the Previous 24 Hours

Scroll right to see more
 ConditionsComfort  
Time TempWeatherWind HumidityBarometerVisibility
1:00 am
Mon, Apr 24
63 °FPassing clouds.5 mph88%29.89 "HgN/A
12:00 am64 °FPassing clouds.5 mph88%29.89 "HgN/A
11:00 pm
Sun, Apr 23
64 °FPassing clouds.2 mph94%29.86 "HgN/A
10:00 pm68 °FPassing clouds.No wind83%29.86 "HgN/A
9:00 pm68 °FPassing clouds.6 mph88%29.86 "HgN/A
8:00 pm68 °FPartly cloudy.7 mph83%29.86 "HgN/A
7:00 pm72 °FPassing clouds.5 mph78%29.86 "HgN/A
6:00 pm73 °FScattered clouds.8 mph74%29.83 "HgN/A
5:00 pm77 °FBroken clouds.8 mph61%29.83 "HgN/A
4:00 pm77 °FBroken clouds.7 mph61%29.86 "HgN/A
3:00 pm77 °FBroken clouds.7 mph61%29.89 "HgN/A
2:00 pm75 °FBroken clouds.5 mph65%29.92 "HgN/A
1:00 pm75 °FScattered clouds.5 mph65%29.95 "HgN/A
12:00 pm72 °FBroken clouds.5 mph73%29.98 "HgN/A
11:00 am70 °FBroken clouds.5 mph78%30.01 "Hg6 mi
10:00 am66 °FFog.No wind94%30.01 "Hg3 mi
9:00 am64 °FFog.No wind94%30.01 "Hg1 mi
8:00 am63 °FFog.No wind100%30.01 "Hg1 mi
7:00 am64 °FFog.No wind94%29.98 "Hg2 mi
6:00 am64 °FFog.No wind94%29.98 "Hg2 mi
5:00 am64 °FFog.No wind94%30.01 "Hg2 mi
4:00 am64 °FPassing clouds.No wind94%30.01 "Hg3 mi
3:00 am64 °FFog.No wind94%30.04 "Hg2 mi
2:00 am64 °FFog.2 mph94%30.07 "Hg2 mi
Weather by CustomWeather, © 2017

See weather overviewHow to use our weather pages